Regional Weather Roundup
Issued by NWS

Home | Current Version | Previous Version | Graphics & Text | Print | Product List | Glossary On
Versions: 1 2 3 4 5 6 7 8 9 10 11 12 13 14 15 16 17 18 19 20 21 22 23 24 25 26 27 28 29 30 31 32 33 34 35 36 37 38 39 40 41 42 43 44 45 46 47 48 49 50
000
ASUS43 KBIS 311810
RWRND

NORTH DAKOTA REGIONAL WEATHER ROUNDUP
NATIONAL WEATHER SERVICE BISMARCK ND
100 PM CDT FRI JUL 31 2015

NOTE: "FAIR" INDICATES FEW OR NO CLOUDS BELOW 12,000 FEET WITH NO
SIGNIFICANT WEATHER AND/OR OBSTRUCTIONS TO VISIBILITY.


NDZ001>003-009>011-017-311900-
NORTHWEST NORTH DAKOTA

CITY           SKY/WX    TMP DP  RH WIND       PRES   REMARKS
WILLISTON      SUNNY     83  47  28 N8        30.14F
6HR MIN TEMP:  55; 6HR MAX TEMP:  84;

MINOT          SUNNY     80  50  34 W8        30.10F
MINOT AFB      SUNNY     82  51  33 NW12G18   30.10F
$$

NDZ018>021-031>035-040>046-311900-
SOUTHWEST NORTH DAKOTA

CITY           SKY/WX    TMP DP  RH WIND       PRES   REMARKS
BISMARCK       SUNNY     86  52  30 NW12G18   30.12F
6HR MIN TEMP:  54; 6HR MAX TEMP:  86;

DICKINSON      SUNNY     86  43  22 N8        30.16F
GARRISON         N/A     80  55  42 N10       30.12F
6HR MIN TEMP:  58; 6HR MAX TEMP:  80;

HETTINGER ARPT SUNNY     86  42  21 W8        30.19F
$$

NDZ004>008-012>016-024-026-027-054-311900-
NORTHEAST NORTH DAKOTA

CITY           SKY/WX    TMP DP  RH WIND       PRES   REMARKS
GRAND FORKS    MOSUNNY   79  50  36 NW20G28   30.04F
GRND FRKS AFB  SUNNY     79  51  38 NW16      30.06F
DEVILS LAKE    MOSUNNY   79  50  36 NW12      30.09S
$$

NDZ022-023-025-028>030-036>039-047>053-311900-
SOUTHEAST NORTH DAKOTA

CITY           SKY/WX    TMP DP  RH WIND       PRES   REMARKS
FARGO          SUNNY     81  51  35 NW16G23   30.07F
6HR MIN TEMP:  57; 6HR MAX TEMP:  81;

JAMESTOWN      SUNNY     79  55  43 NW8       30.11F
$$




USA.gov is the U.S. government's official web portal to all federal, state and local government web resources and services.